EHI
0 0 0 0 0 0 0 0 0 0 0 0 0 0 0 0 0 0 0 0 0 0 0 0 0 0 0 0 0 0 0 0 0 0 0 0 0 0 0 0 0 0 0 0 0 0 0 0 0
0 0 0 0 0 0 0 0 0 0 0 0 0 0 0 0 0 0 0 0 0 0 0 0 0 0 0 0 0 0 0 0 0 0 0 0 0 0 0 0 0 0 0 0 0 0 0 0 0
0 0 0 0 0 0 0 0 0 0 0 0 0 0 0 0 0 0 0 0 0 0 0 0 0 0 0 0 0 0 0 0 0 0 0 0 0 0 0 0 0 0 0 0 0 0 0 0 0
0 0 0 0 0 0 0 0 0 0 0 0 0 0 0 0 0 0 0 0 0 0 0 0 0 0 0 0 0 0 0 0 0 0 0 0 0 0 0 0 0 0 0 0 0 0 0 0 0
0 0 0 0 0 0 0 0 0 0 0 0 0 0 0 0 0 0 0 0 0 0 0 0 0 0 0 0 0 0 0 0 0 0 0 0 0 0 0 0 0 0 0 0 0 0 0 0 0
0 0 0 0 0 0 0 0 0 0 0 0 0 0 0 0 0 0 0 0 0 0 0 0 0 0 0 0 0 0 0 0 0 0 0 0 0 0 0 0 0 0 0 0 0 0 0 0 0
0 0 0 0 0 0 0 0 0 0 0 0 0 0 0 0 0 0 0 0 0 0 0 0 0 0 0 0 0 0 0 0 0 0 0 0 0 0 0 0 0 0 0 0 0 0 0 0 0
0 0 0 0 0 0 0 0 0 0 0 0 0 0 0 0 0 0 0 0 0 0 0 0 0 0 0 0 0 0 0 0 0 0 0 0 0 0 0 0 0 0 0 0 0 0 0 0 0
0 0 0 0 0 0 0 0 0 0 0 0 0 1 3 3 1 0 0 0 0 0 0 0 0 0 0 0 0 0 0 0 0 0 0 0 0 0 0 0 0 0 0 0 0 0 0 0 0
0 0 0 0 0 0 0 0 0 0 0 0 1 8 16 13 4 0 0 0 0 0 0 0 0 0 0 0 0 0 0 0 0 0 0 0 0 0 0 0 0 0 0 0 0 0 0 0 0
0 0 0 0 0 0 0 0 0 0 0 0 4 22 37 27 8 1 0 0 0 0 0 0 0 0 0 0 0 0 0 0 0 0 0 0 0 0 0 0 0 0 0 0 0 0 0 0 0
0 0 0 0 0 0 0 0 0 0 0 0 8 33 51 36 13 2 0 0 0 0 0 0 0 0 0 0 0 0 0 0 0 0 0 0 0 0 0 0 0 0 0 0 0 0 0 0 0
0 0 0 0 0 0 0 0 0 0 0 0 8 32 48 38 18 6 2 1 0 0 0 0 0 0 0 0 0 0 0 0 0 0 0 0 0 0 0 0 0 0 0 0 0 0 0 0 0
0 0 0 0 0 0 0 0 0 0 0 0 6 21 34 32 22 13 6 3 1 0 0 0 0 0 0 0 0 0 0 0 0 0 0 0 0 0 0 0 0 0 0 0 0 0 0 0 0
0 0 0 0 0 0 0 0 0 0 0 0 3 12 19 23 23 21 15 9 5 2 1 0 0 0 0 0 0 0 0 0 0 0 0 0 0 0 0 0 0 0 0 0 0 0 0 0 0
0 0 0 0 0 0 0 0 0 0 0 1 3 6 10 14 18 21 21 18 14 9 5 2 1 0 0 1 1 0 0 0 0 0 0 0 0 0 0 0 0 0 0 0 0 0 0 0 0
0 0 0 0 0 0 0 0 0 0 1 2 4 6 7 8 10 16 21 24 23 19 13 8 6 3 1 1 1 0 0 0 0 0 0 0 0 0 0 0 0 0 0 0 0 0 0 0 0
0 0 0 0 0 0 0 0 0 0 1 3 6 9 9 9 10 15 21 26 27 24 22 20 18 14 11 12 10 7 4 2 1 1 0 0 0 0 0 0 0 0 0 0 0 0 0 0 0
0 0 0 0 0 0 0 0 0 1 3 7 12 15 17 19 21 21 24 25 24 22 23 28 32 32 34 38 36 27 18 9 4 2 1 0 0 0 0 0 0 0 0 0 0 0 0 0 0
0 0 0 0 0 0 0 0 0 2 6 13 20 23 27 32 33 30 27 25 21 19 20 26 35 44 51 58 61 53 37 21 9 4 1 0 0 0 0 0 0 0 0 0 1 0 0 0 0
0 0 0 0 0 0 0 0 0 1 6 15 19 21 26 32 32 30 26 24 21 20 20 22 27 37 48 58 64 61 48 31 16 5 1 0 0 0 0 0 0 0 0 0 0 0 0 0 1
0 0 0 0 0 0 0 0 0 1 4 8 8 9 12 15 16 17 19 19 20 19 18 18 18 23 34 45 52 53 47 33 17 6 1 0 0 1 0 0 0 0 0 0 0 0 1 1 1
0 0 0 0 0 0 0 0 0 0 1 1 1 1 2 2 4 6 9 12 15 14 13 13 14 15 20 29 38 43 40 27 12 3 0 0 0 0 0 0 0 0 0 0 0 0 0 0 1
0 0 0 0 0 0 0 0 0 0 0 0 0 0 0 0 0 1 3 6 8 9 7 8 11 11 12 17 25 30 26 15 6 1 0 0 0 0 0 0 0 0 0 0 0 0 0 0 0
0 0 0 0 0 0 0 0 0 0 0 0 0 0 0 0 0 0 0 1 3 4 4 5 7 7 7 9 12 14 10 5 1 0 0 0 0 0 0 0 0 0 0 0 0 0 0 0 0
0 0 0 0 0 0 0 0 0 0 0 0 0 0 0 0 0 0 0 0 0 1 2 3 4 4 4 3 3 3 2 0 0 0 0 0 0 0 0 0 0 0 0 0 0 0 0 0 0
0 0 0 0 0 0 0 0 0 0 0 0 0 0 0 0 0 0 0 0 0 0 1 2 3 3 2 1 0 0 0 0 0 0 0 0 0 0 0 0 0 0 0 0 0 0 0 0 0
0 0 0 0 0 0 0 0 0 0 0 0 0 0 0 0 0 0 0 0 0 0 0 2 3 2 1 0 0 0 0 0 0 0 0 0 0 0 0 0 0 0 0 0 0 0 0 0 0
0 0 0 0 0 0 0 0 0 0 0 0 0 0 0 0 0 0 0 0 0 0 0 1 2 1 0 0 0 0 0 0 0 0 0 0 0 0 0 0 0 0 0 0 0 0 0 0 0
0 0 0 0 0 0 0 0 0 0 0 0 0 0 0 0 0 0 0 0 0 0 0 0 1 0 0 0 0 0 0 0 0 0 0 0 0 0 0 0 0 0 0 0 0 0 0 0 0
Wind_Speed
2 1 2 1 2 3 3 3 0 1 2 1 3 3 6 4 3 3 3 11 14 14 11 15 18 17 16 15 14 14 13 13 13 13 12 12 12 11 11 11 10 10 9 8 8 8 8 8 8
1 3 2 2 4 3 4 3 1 1 4 5 5 4 5 3 3 6 6 8 15 14 10 12 18 18 16 15 14 13 13 12 12 12 11 11 10 10 10 10 9 9 8 8 7 7 7 7 7
2 2 3 4 3 0 3 3 1 4 4 3 4 4 4 4 6 6 6 11 12 10 9 13 20 18 17 15 14 13 13 12 12 11 11 10 10 9 9 9 8 7 7 7 6 6 6 6 7
3 3 4 5 2 3 4 2 2 5 3 4 4 4 3 3 6 7 12 14 12 9 8 12 20 18 17 16 15 14 13 12 11 11 10 10 9 9 8 8 7 6 6 5 5 5 5 5 6
3 4 5 4 4 5 4 1 5 2 2 3 4 4 3 3 8 13 14 13 12 9 7 10 18 18 17 16 15 14 13 12 11 11 10 9 9 8 8 7 6 6 5 4 4 4 5 5 5
4 5 5 3 7 6 4 1 3 2 3 4 5 4 2 4 11 13 12 11 10 9 7 8 17 17 16 16 16 15 14 13 12 11 10 9 8 8 7 7 6 6 5 5 4 4 5 5 6
4 4 3 1 5 6 6 4 3 3 3 4 6 5 2 5 9 12 10 9 7 7 6 6 8 11 15 16 15 14 13 12 12 11 10 9 9 8 8 7 7 6 6 6 5 5 6 6 6
4 5 2 1 2 4 6 6 2 3 2 4 5 8 7 7 9 10 9 7 6 6 5 5 6 6 6 8 14 14 13 12 11 11 10 10 9 9 8 7 7 8 8 8 8 8 8 8 8
4 5 2 3 1 4 5 6 4 2 5 3 3 5 7 15 14 12 9 7 8 8 5 5 5 5 5 5 9 11 12 11 10 9 11 9 4 3 4 7 9 10 10 10 10 10 10 9 9
5 3 5 4 2 3 5 3 3 2 2 1 2 5 14 17 16 15 14 14 15 13 11 6 6 6 5 6 4 3 3 4 4 3 4 3 3 3 5 5 10 12 12 12 12 12 10 8 4
3 4 4 4 4 3 5 5 2 5 5 8 8 13 20 18 15 15 15 14 14 12 12 9 7 6 6 4 3 2 2 2 3 4 4 2 2 2 3 2 5 6 8 6 7 6 4 4 4
1 4 4 4 3 3 4 4 2 5 8 7 11 19 24 21 19 18 17 15 11 10 12 10 9 6 6 4 3 3 3 2 3 4 4 3 2 3 3 3 4 4 3 4 4 3 4 5 6
2 4 4 5 7 5 4 4 4 6 6 4 13 17 21 20 18 14 13 13 11 12 12 10 9 8 7 5 3 4 4 4 4 3 4 5 4 4 4 4 4 5 4 4 4 4 5 6 6
3 4 6 7 6 3 2 3 2 6 2 9 15 17 18 18 16 13 12 12 12 12 12 10 10 9 7 6 5 4 5 4 4 5 6 7 6 5 5 5 5 5 4 4 4 5 4 5 5
3 4 6 4 3 3 2 5 4 4 5 9 13 14 14 12 12 13 14 12 12 11 11 10 11 9 8 8 7 6 5 5 5 6 7 8 7 7 6 5 5 5 4 4 4 4 4 4 5
3 3 4 7 4 4 1 5 9 2 7 9 10 11 11 10 11 11 11 10 10 9 9 10 10 10 10 9 7 6 5 6 6 6 6 8 9 8 6 6 6 5 4 3 3 3 3 4 4
5 3 3 7 4 3 2 6 10 3 7 9 10 11 11 9 9 10 11 11 11 11 10 10 10 10 11 10 8 7 6 6 6 5 5 7 8 8 7 6 6 4 4 4 4 4 3 4 5
2 2 3 6 6 5 4 6 9 6 6 8 8 9 9 11 11 7 8 9 9 10 10 10 10 9 9 7 5 4 4 4 4 5 5 6 6 7 7 6 6 5 4 4 4 4 4 4 4
1 2 5 6 5 3 4 6 8 9 5 3 2 4 6 6 2 2 3 5 6 7 8 9 9 7 5 4 4 4 5 4 4 5 6 6 6 6 6 5 5 5 5 6 5 3 4 4 2
2 2 4 6 5 3 4 5 5 9 9 6 3 2 1 2 2 1 1 1 3 4 5 5 5 5 6 5 4 3 3 3 3 3 4 4 4 4 5 5 5 5 4 5 5 4 2 2 2
1 3 3 4 5 5 5 7 5 6 8 11 11 7 6 4 2 2 2 2 2 1 2 3 4 4 4 4 2 1 0 0 1 2 2 2 3 3 3 4 3 3 4 4 4 4 5 4 3
2 3 3 1 2 4 3 4 5 5 7 10 10 9 8 7 5 3 3 2 2 2 2 3 4 4 4 4 3 4 4 4 4 3 1 1 1 2 2 2 2 2 2 3 4 3 4 4 5
2 2 2 2 1 2 3 1 6 5 6 6 6 6 5 5 5 4 3 3 2 2 2 3 4 4 4 4 6 6 5 4 2 1 2 1 1 1 1 1 1 1 1 2 2 2 3 3 4
2 5 5 5 5 1 2 1 6 2 3 4 4 4 4 4 4 4 4 3 3 2 2 2 2 3 3 4 4 6 6 5 4 3 3 1 1 1 2 2 2 1 1 0 1 1 2 2 3
6 6 6 7 5 5 4 2 8 3 2 3 3 4 4 4 5 5 5 5 4 4 4 3 2 2 1 2 3 4 5 5 5 4 3 3 1 1 2 2 2 2 2 2 1 1 1 1 1
2 6 5 3 4 6 5 5 6 3 3 4 4 4 4 5 5 5 6 6 5 5 4 3 3 1 1 2 3 4 5 4 3 4 3 3 2 1 1 2 3 3 2 2 2 1 1 1 2
4 2 4 6 1 3 6 7 7 3 5 6 6 6 7 6 5 5 5 5 5 5 4 3 2 0 1 3 4 5 5 6 5 4 4 3 2 2 2 3 3 3 2 2 2 1 1 2 2
3 7 5 4 2 4 6 5 6 5 7 7 7 8 8 6 6 5 4 4 4 4 3 3 1 0 2 2 3 4 5 6 6 5 5 4 3 3 3 3 3 3 3 3 2 1 2 2 2
3 4 5 4 4 4 5 9 8 7 7 7 9 8 8 7 6 5 4 3 3 3 2 2 2 2 2 3 3 4 5 5 6 5 4 4 3 3 3 3 4 4 4 4 3 3 3 3 3
3 6 7 5 4 5 3 11 7 7 7 7 9 8 7 6 5 4 3 2 2 2 2 2 2 1 1 2 3 4 5 5 5 5 4 4 4 4 4 4 5 5 5 5 5 4 5 5 5
Wind_Direction
230 152 132 131 58 32 352 332 342 89 61 67 121 114 126 127 170 189 127 143 141 149 158 161 160 158 156 152 147 145 144 141 138 136 136 137 140 143 144 144 143 144 143 140 137 133 130 129 129
178 144 115 72 64 27 327 327 16 150 143 117 85 77 77 78 69 107 135 149 146 150 155 159 162 162 161 159 156 155 153 148 144 142 141 142 144 147 150 149 147 146 146 144 145 146 146 144 145
194 167 87 65 62 200 297 321 43 100 144 105 84 69 95 144 135 140 155 145 140 147 152 164 164 165 165 165 165 164 162 157 154 152 151 150 152 155 156 157 158 158 156 155 155 157 160 162 163
136 61 54 58 346 263 254 270 137 134 130 72 100 86 72 130 149 144 143 145 142 146 153 169 166 168 169 171 172 172 171 167 164 162 161 160 160 161 163 165 169 174 175 176 175 176 178 184 186
68 77 50 18 309 285 286 221 157 158 106 93 110 101 59 56 114 133 143 149 149 150 159 171 169 171 173 175 177 179 178 176 174 172 172 170 169 170 171 174 179 185 192 197 200 203 204 210 214
55 61 66 344 314 310 328 357 132 114 112 115 117 108 103 129 135 146 148 149 153 154 158 167 174 175 177 179 181 183 184 182 181 181 182 184 184 184 184 188 192 197 203 210 216 222 227 231 235
95 88 124 277 305 324 352 351 119 127 143 163 138 112 131 163 157 149 143 139 146 154 155 166 173 179 182 184 186 188 188 188 187 188 191 194 198 201 202 206 212 217 222 227 234 240 247 249 250
114 99 105 272 291 307 333 353 71 132 153 130 131 147 179 183 152 139 129 132 147 158 163 167 168 171 177 186 192 192 194 193 192 194 199 203 209 212 217 220 229 235 240 244 249 252 255 259 260
84 79 170 224 248 295 329 352 345 106 121 150 169 172 174 146 144 138 138 149 171 179 181 176 173 172 171 179 196 195 197 197 197 202 207 209 214 225 236 239 242 249 254 256 257 258 258 260 263
86 131 220 230 236 282 305 312 295 119 137 175 88 100 131 147 154 159 166 175 184 189 192 188 183 177 173 186 187 182 186 187 191 188 207 197 190 222 240 260 260 264 268 269 266 261 261 263 260
130 185 231 254 253 271 293 302 299 154 213 214 186 155 150 161 167 173 178 183 189 190 192 194 191 183 180 183 170 171 172 175 188 195 202 199 201 229 251 266 275 279 284 283 280 278 264 257 255
197 232 227 260 268 280 263 282 285 204 227 217 176 160 160 172 179 182 183 186 184 186 196 194 191 189 190 185 181 179 182 190 200 204 203 200 214 229 241 251 260 266 267 269 266 260 261 263 263
239 265 265 261 285 262 252 252 252 255 264 148 143 161 172 181 185 188 187 185 183 190 195 193 192 194 193 192 195 190 196 205 209 210 210 206 217 231 236 248 253 256 252 250 254 254 261 267 270
265 272 289 286 286 271 258 287 237 268 136 138 156 175 183 187 186 185 187 189 190 193 195 192 195 197 193 198 202 203 202 208 210 219 222 215 220 227 232 243 248 250 241 235 238 248 256 265 269
287 306 319 313 318 308 346 319 265 257 139 161 177 182 186 190 187 194 193 192 193 195 193 192 198 196 197 205 210 212 210 206 215 225 225 222 221 224 228 237 244 245 234 231 238 250 252 259 262
26 34 345 309 327 331 56 284 280 237 166 187 190 187 189 193 196 197 194 194 191 190 191 196 200 196 200 205 210 215 213 213 223 227 225 224 223 222 223 231 240 236 223 220 227 235 245 256 261
20 19 331 313 320 355 33 271 287 288 194 200 195 192 193 193 199 197 193 192 191 191 190 194 198 196 201 205 209 213 213 216 225 225 225 226 226 222 217 227 233 221 214 219 228 225 222 249 259
300 333 326 305 305 346 338 291 307 323 228 216 201 193 193 202 209 192 187 190 192 193 195 199 202 204 200 203 206 210 216 220 218 218 221 222 220 215 209 219 222 208 212 223 223 232 230 240 258
223 296 298 283 296 327 313 315 335 355 359 322 231 202 207 220 215 142 174 186 190 197 200 205 206 211 196 186 194 196 208 212 214 216 214 212 211 207 203 209 211 205 215 226 225 230 245 251 238
229 293 300 302 328 358 324 328 358 25 20 15 35 67 48 30 41 33 49 213 199 206 209 212 215 218 207 204 200 196 198 205 208 209 206 207 207 205 206 208 211 210 218 230 230 222 239 251 206
234 212 255 284 330 10 8 345 359 14 26 34 34 35 36 40 35 29 26 358 336 260 228 219 213 213 218 218 199 172 172 219 227 236 221 213 207 209 208 211 210 206 206 230 241 230 237 259 252
265 244 228 262 24 326 17 312 315 357 17 31 28 24 18 14 18 25 24 343 322 292 264 215 194 203 212 205 203 210 219 235 228 222 218 227 198 200 210 210 209 212 210 229 248 240 234 247 264
224 38 53 30 130 342 355 262 290 1 9 6 11 15 8 4 2 356 346 314 296 281 258 218 195 198 200 198 201 207 220 231 222 190 149 152 95 93 122 148 170 196 215 243 259 260 246 240 256
91 64 51 44 62 330 289 283 280 313 313 313 328 341 340 340 341 334 326 317 305 297 287 267 225 219 204 193 193 199 197 188 178 171 157 151 99 60 49 68 76 75 62 343 298 284 275 263 265
61 67 17 355 4 264 284 259 248 226 236 267 274 282 297 313 320 319 320 320 318 317 308 298 269 242 208 164 156 170 167 161 163 160 151 141 118 76 45 58 65 63 55 44 33 21 353 313 291
98 130 155 229 240 279 310 254 253 217 223 246 254 262 277 288 298 304 307 312 312 312 309 302 290 274 116 117 106 108 115 116 115 118 121 115 103 87 53 57 61 56 49 42 35 28 353 334 308
132 138 159 144 207 270 278 292 299 224 247 251 257 259 259 262 271 279 294 307 312 317 320 309 295 286 108 111 113 106 106 108 107 101 96 94 85 70 59 59 56 44 39 32 32 22 347 333 311
92 139 99 122 200 269 288 281 256 249 253 257 256 256 256 254 260 268 282 298 311 319 330 342 3 140 102 97 112 113 107 105 106 103 97 93 80 66 63 58 57 49 40 33 35 13 351 353 346
104 98 108 120 159 177 269 270 234 230 241 252 261 261 261 255 253 258 266 285 303 318 344 2 16 40 79 93 99 102 96 97 97 93 86 85 78 73 71 69 65 55 42 32 34 24 24 35 30
196 174 149 159 224 192 212 268 259 240 254 256 267 275 274 263 256 253 260 274 302 314 334 15 24 37 71 107 116 111 103 97 94 94 90 87 83 74 76 73 65 53 44 38 40 39 43 49 45